| time (UTC) | temp F | wind direction | speed MPH | gust MPH | rain 1hr in | rain 24hr in | rain mn in | humidity % | barometer mb |
| 20260503040051 | 51 | 0 | 0.0 | 0.0 | 0.00 | 0.00 | 0.00 | 77 | 1020.3 |
| 20260503034544 | 51 | 0 | 0.0 | 0.0 | 0.00 | 0.00 | 0.00 | 77 | 1020.3 |
| 20260503033044 | 52 | 0 | 0.0 | 0.0 | 0.00 | 0.00 | 0.00 | 75 | 1020.2 |
| 20260503031550 | 52 | 0 | 0.0 | 0.0 | 0.00 | 0.00 | 0.00 | 74 | 1020.1 |
| 20260503030104 | 53 | 0 | 0.0 | 2.0 | 0.00 | 0.00 | 0.00 | 75 | 1020.0 |
| 20260503024556 | 52 | 65 | 0.0 | 5.0 | 0.00 | 0.00 | 0.00 | 76 | 1020.0 |
| 20260503023047 | 53 | 0 | 0.0 | 0.0 | 0.00 | 0.00 | 0.00 | 74 | 1019.7 |
| 20260503021547 | 54 | 0 | 0.0 | 0.0 | 0.00 | 0.00 | 0.00 | 71 | 1019.5 |
| 20260503020052 | 55 | 0 | 0.0 | 0.0 | 0.00 | 0.00 | 0.00 | 69 | 1019.3 |
| 20260503014554 | 57 | 0 | 0.0 | 0.0 | 0.00 | 0.00 | 0.00 | 67 | 1019.1 |
| 20260503013042 | 58 | 0 | 0.0 | 0.0 | 0.00 | 0.00 | 0.00 | 63 | 1018.9 |
| 20260503011548 | 60 | 0 | 0.0 | 0.0 | 0.00 | 0.00 | 0.00 | 61 | 1018.8 |
| 20260503010048 | 62 | 0 | 0.0 | 0.0 | 0.00 | 0.00 | 0.00 | 57 | 1018.7 |
| 20260503004555 | 64 | 0 | 0.0 | 0.0 | 0.00 | 0.00 | 0.00 | 54 | 1018.6 |
| 20260503003049 | 66 | 0 | 0.0 | 2.0 | 0.00 | 0.00 | 0.00 | 48 | 1018.5 |
| 20260503001550 | 67 | 236 | 0.0 | 4.0 | 0.00 | 0.00 | 0.00 | 45 | 1018.5 |
| 20260503000052 | 68 | 211 | 2.0 | 7.0 | 0.00 | 0.00 | 0.00 | 45 | 1018.3 |
| 20260502234554 | 69 | 0 | 1.0 | 8.0 | 0.00 | 0.00 | 0.00 | 44 | 1018.2 |
| 20260502233050 | 69 | 234 | 0.0 | 8.0 | 0.00 | 0.00 | 0.00 | 44 | 1018.3 |
| 20260502231546 | 70 | 248 | 1.0 | 4.0 | 0.00 | 0.00 | 0.00 | 44 | 1018.2 |
| 20260502230051 | 70 | 239 | 2.0 | 12.0 | 0.00 | 0.00 | 0.00 | 42 | 1018.3 |
| 20260502224549 | 71 | 0 | 1.0 | 5.0 | 0.00 | 0.00 | 0.00 | 45 | 1018.2 |
| 20260502223102 | 72 | 263 | 2.0 | 10.0 | 0.00 | 0.00 | 0.00 | 44 | 1018.2 |
| 20260502221555 | 71 | 227 | 3.0 | 10.0 | 0.00 | 0.00 | 0.00 | 41 | 1018.1 |
| 20260502220100 | 71 | 0 | 1.0 | 8.0 | 0.00 | 0.00 | 0.00 | 46 | 1018.2 |
| 20260502214617 | 70 | 213 | 1.0 | 7.0 | 0.00 | 0.00 | 0.00 | 47 | 1018.2 |
| 20260502213104 | 68 | 223 | 1.0 | 5.0 | 0.00 | 0.00 | 0.00 | 52 | 1018.3 |
| 20260502211554 | 69 | 219 | 1.0 | 8.0 | 0.00 | 0.00 | 0.00 | 48 | 1018.4 |
| 20260502210048 | 69 | 216 | 2.0 | 10.0 | 0.00 | 0.00 | 0.00 | 45 | 1018.4 |
| 20260502204545 | 70 | 0 | 1.0 | 10.0 | 0.00 | 0.00 | 0.00 | 42 | 1018.5 |
| 20260502203108 | 71 | 223 | 1.0 | 12.0 | 0.00 | 0.00 | 0.00 | 43 | 1018.7 |
| 20260502201547 | 71 | 228 | 4.0 | 13.0 | 0.00 | 0.00 | 0.00 | 44 | 1018.9 |
| 20260502200056 | 69 | 219 | 3.0 | 11.0 | 0.00 | 0.00 | 0.00 | 45 | 1019.1 |
| 20260502194544 | 71 | 252 | 2.0 | 10.0 | 0.00 | 0.00 | 0.00 | 40 | 1019.1 |
| 20260502193044 | 70 | 227 | 2.0 | 7.0 | 0.00 | 0.00 | 0.00 | 45 | 1019.3 |
| 20260502191550 | 68 | 15 | 1.0 | 8.0 | 0.00 | 0.00 | 0.00 | 47 | 1019.4 |
| 20260502190047 | 69 | 204 | 1.0 | 10.0 | 0.00 | 0.00 | 0.00 | 44 | 1019.5 |
| 20260502184546 | 68 | 223 | 2.0 | 8.0 | 0.00 | 0.00 | 0.00 | 46 | 1019.7 |
| 20260502183048 | 70 | 221 | 4.0 | 10.0 | 0.00 | 0.00 | 0.00 | 45 | 1019.7 |
| 20260502181546 | 69 | 0 | 2.0 | 8.0 | 0.00 | 0.00 | 0.00 | 45 | 1019.9 |
| 20260502163059 | 67 | 211 | 3.0 | 9.0 | 0.00 | 0.00 | 0.00 | 48 | 1020.6 |
| 20260502161559 | 66 | 237 | 2.0 | 11.0 | 0.00 | 0.00 | 0.00 | 48 | 1020.6 |
| 20260502151549 | 62 | 228 | 1.0 | 6.0 | 0.00 | 0.00 | 0.00 | 57 | 1020.7 |
| 20260502123109 | 44 | 0 | 0.0 | 0.0 | 0.00 | 0.00 | 0.00 | 94 | 1019.7 |
| 20260502121550 | 43 | 0 | 0.0 | 0.0 | 0.00 | 0.00 | 0.00 | 92 | 1019.7 |
| 20260502120109 | 43 | 0 | 0.0 | 1.0 | 0.00 | 0.00 | 0.00 | 91 | 1019.4 |
| 20260502114545 | 43 | 0 | 0.0 | 0.0 | 0.00 | 0.00 | 0.00 | 91 | 1019.2 |
| 20260502113051 | 43 | 0 | 0.0 | 0.0 | 0.00 | 0.00 | 0.00 | 91 | 1019.0 |
| 20260502111547 | 43 | 0 | 0.0 | 0.0 | 0.00 | 0.00 | 0.00 | 90 | 1018.9 |
| 20260502110050 | 44 | 0 | 0.0 | 0.0 | 0.00 | 0.00 | 0.00 | 90 | 1018.8 |
| 20260502104543 | 44 | 0 | 0.0 | 0.0 | 0.00 | 0.00 | 0.00 | 90 | 1018.5 |
| 20260502103044 | 45 | 0 | 0.0 | 0.0 | 0.00 | 0.00 | 0.00 | 90 | 1018.4 |
| 20260502101547 | 45 | 0 | 0.0 | 0.0 | 0.00 | 0.00 | 0.00 | 90 | 1018.4 |
| 20260502070101 | 51 | 0 | 0.0 | 0.0 | 0.00 | 0.00 | 0.00 | 88 | 1018.3 |
| 20260502064550 | 51 | 0 | 0.0 | 0.0 | 0.00 | 0.00 | 0.00 | 88 | 1018.4 |
| 20260502063050 | 51 | 0 | 0.0 | 0.0 | 0.00 | 0.00 | 0.00 | 88 | 1018.5 |
| 20260502061545 | 51 | 0 | 0.0 | 0.0 | 0.00 | 0.00 | 0.00 | 88 | 1018.4 |
| 20260502060052 | 51 | 0 | 0.0 | 0.0 | 0.00 | 0.00 | 0.00 | 87 | 1018.6 |
| 20260502054546 | 51 | 0 | 0.0 | 0.0 | 0.00 | 0.00 | 0.00 | 87 | 1018.7 |
| 20260502053046 | 51 | 0 | 0.0 | 0.0 | 0.00 | 0.00 | 0.00 | 86 | 1018.6 |
| 20260502051557 | 51 | 0 | 0.0 | 0.0 | 0.00 | 0.00 | 0.00 | 86 | 1018.7 |
| 20260502050051 | 51 | 0 | 0.0 | 0.0 | 0.00 | 0.00 | 0.00 | 85 | 1018.5 |
| 20260502044545 | 52 | 0 | 0.0 | 0.0 | 0.00 | 0.00 | 0.00 | 84 | 1018.5 |
| 20260502043047 | 52 | 0 | 0.0 | 0.0 | 0.00 | 0.00 | 0.00 | 83 | 1018.4 |
| 20260502041547 | 52 | 0 | 0.0 | 0.0 | 0.00 | 0.00 | 0.00 | 83 | 1018.5 |